Tracking 17938 objects as of 24-February-2017
HD Live streaming from Space Station
objects crossing your sky now

AENEAS

Track AENEAS now!
10-day predictions
AENEAS is classified as:


NORAD ID: 38760
Int'l Code: 2012-048C
Perigee: 481.8 km
Apogee: 650.4 km
Inclination: 64.7 °
Period: 95.8 minutes
Semi major axis: 6937 km
RCS: Unknown
Launch date: September 13, 2012
Source: United States (US)
Launch site: AIR FORCE WESTERN TEST RANGE (AFWTR)
Uplink (MHz):
Downlink (MHz): 437.600
Beacon (MHz): 437.600
Mode: 1200bps AFSK
Call sign: KE6YFA-1
Status: Active

Your satellite tracking list
Your tracking list is empty





NASA's NSSDC Master Catalog

Two Line Element Set (TLE):
1 38760U 12048C   17053.39186631 +.00001639 +00000-0 +11763-3 0 04010
2 38760 064.6632 013.1090 0121501 155.2531 205.4510 15.02565094061235
Source of the keplerian elements: Caltech